This is the latest recevied weather packets stored in our database for station/object HB9TJM-8. If no packets are shown the sender has not sent any weather packets the latest 10 day(s).
| Time | Temp. | Humidity | Pressure | Rain* | Wind** | Luminosity | Snow |
|---|---|---|---|---|---|---|---|
| 1777370602 | 13.33° C | 57% | 1016.7 hPa | 0 mm | - | 227 W/m² | - |
| 1777370295 | 12.78° C | 55% | 1016.7 hPa | 0 mm | - | 231 W/m² | - |
| 1777369681 | 13.33° C | 56% | 1016.8 hPa | 0 mm | - | 255 W/m² | - |
| 1777369374 | 12.78° C | 56% | 1016.7 hPa | 0 mm | - | 268 W/m² | - |
| 1777369066 | 13.33° C | 56% | 1016.6 hPa | 0 mm | - | 278 W/m² | - |
| 1777369066 | 13.33° C | 56% | 1016.6 hPa | 0 mm | - | 278 W/m² | - |
| 1777368759 | 13.33° C | 55% | 1016.7 hPa | 0 mm | - | 352 W/m² | - |
| 1777368759 | 13.33° C | 55% | 1016.7 hPa | 0 mm | - | 352 W/m² | - |
| 1777368451 | 13.89° C | 55% | 1017.1 hPa | 0 mm | - | 376 W/m² | - |
| 1777368451 | 13.89° C | 55% | 1017.1 hPa | 0 mm | - | 376 W/m² | - |
| 1777367836 | 13.33° C | 59% | 1016.6 hPa | 0 mm | - | 395 W/m² | - |
| 1777367836 | 13.33° C | 59% | 1016.6 hPa | 0 mm | - | 395 W/m² | - |
| 1777367221 | 13.89° C | 53% | 1016.9 hPa | 0 mm | - | 354 W/m² | - |
| 1777367221 | 13.89° C | 53% | 1016.9 hPa | 0 mm | - | 354 W/m² | - |
| 1777366606 | 13.89° C | 56% | 1016.6 hPa | 0 mm | - | 487 W/m² | - |
| 1777366299 | 13.33° C | 54% | 1016.8 hPa | 0 mm | - | 465 W/m² | - |
| 1777365991 | 13.33° C | 57% | 1016.5 hPa | 0 mm | - | 433 W/m² | - |
| 1777365991 | 13.33° C | 57% | 1016.5 hPa | 0 mm | - | 433 W/m² | - |
| 1777365683 | 13.33° C | 56% | 1017.1 hPa | 0 mm | - | 488 W/m² | - |
| 1777365683 | 13.33° C | 56% | 1017.1 hPa | 0 mm | - | 488 W/m² | - |
| 1777365376 | 13.33° C | 58% | 1016.9 hPa | 0 mm | - | 382 W/m² | - |
| 1777365068 | 12.78° C | 58% | 1016.8 hPa | 0 mm | - | 307 W/m² | - |
| 1777364761 | 12.78° C | 54% | 1016.5 hPa | 0 mm | - | 268 W/m² | - |
| 1777364761 | 12.78° C | 54% | 1016.5 hPa | 0 mm | - | 268 W/m² | - |
| 1777364453 | 12.78° C | 56% | 1016.8 hPa | 0 mm | - | 222 W/m² | - |
* Rain latest hour (hover to see other rain measurements)
** Current wind speed in m/s (hover to see current wind gust speed)